DW2356 Weather Reports


time (UTC)temp
F
wind
direction
speed
knots
gust
knots
rain 1hr
in
rain 24hr
in
rain mn
in
humidity
%
barometer
mb
20260503225838 88 132 0.9 0.9 0.00 0.00 0.00 25 1008.2
20260503225324 87 132 0.0 0.9 0.00 0.00 0.00 26 1008.2
20260503224837 87 132 0.0 0.9 0.00 0.00 0.00 26 1008.3
20260503224343 87 132 0.0 0.9 0.00 0.00 0.00 27 1008.4
20260503223823 87 132 0.0 0.9 0.00 0.00 0.00 25 1008.5
20260503223323 87 132 0.0 2.6 0.00 0.00 0.00 25 1008.5
20260503222838 88 132 1.7 2.6 0.00 0.00 0.00 27 1008.6
20260503222324 88 132 0.0 2.6 0.00 0.00 0.00 32 1008.7
20260503221830 88 132 0.9 3.5 0.00 0.00 0.00 31 1008.7
20260503221333 87 132 0.9 2.6 0.00 0.00 0.00 32 1008.8
20260503220836 87 132 0.0 0.0 0.00 0.00 0.00 31 1008.9
20260503220326 86 132 0.0 0.0 0.00 0.00 0.00 32 1008.9
20260503215822 86 132 0.0 0.0 0.00 0.00 0.00 34 1009.0
20260503215324 85 132 0.0 1.7 0.00 0.00 0.00 36 1009.0
20260503214833 85 132 0.0 1.7 0.00 0.00 0.00 39 1009.1
20260503214320 85 132 0.0 1.7 0.00 0.00 0.00 36 1009.2
20260503213828 85 132 0.9 1.7 0.00 0.00 0.00 36 1009.3
20260503213329 85 132 0.0 0.9 0.00 0.00 0.00 36 1009.3
20260503212831 85 132 0.0 0.9 0.00 0.00 0.00 37 1009.4
20260503212333 84 132 0.0 0.9 0.00 0.00 0.00 37 1009.5
20260503211822 83 132 0.0 0.0 0.00 0.00 0.00 40 1009.6
20260503211331 82 132 0.0 0.9 0.00 0.00 0.00 42 1009.6
20260503210838 82 132 0.0 0.9 0.00 0.00 0.00 44 1009.7
20260503210326 83 132 0.0 0.9 0.00 0.00 0.00 43 1009.8
20260503205832 83 132 0.0 1.7 0.00 0.00 0.00 43 1009.8
20260503205334 82 132 0.0 4.3 0.00 0.00 0.00 43 1009.8
20260503204830 82 132 2.6 4.3 0.00 0.00 0.00 39 1009.0
20260503204321 82 132 1.7 5.2 0.00 0.00 0.00 44 1009.9
20260503203822 81 132 1.7 5.2 0.00 0.00 0.00 43 1010.0
20260503203326 81 132 0.9 2.6 0.00 0.00 0.00 48 1010.1
20260503202816 81 132 1.7 3.5 0.00 0.00 0.00 48 1010.2
20260503202326 81 132 2.6 3.5 0.00 0.00 0.00 47 1010.2
20260503201831 81 132 1.7 4.3 0.00 0.00 0.00 48 1010.3
20260503201319 81 132 1.7 4.3 0.00 0.00 0.00 47 1010.3
20260503200820 81 132 0.0 3.5 0.00 0.00 0.00 53 1010.4
20260503200327 81 132 0.0 2.6 0.00 0.00 0.00 52 1010.5
20260503195831 80 132 0.0 3.5 0.00 0.00 0.00 53 1010.6
20260503195338 79 132 0.9 5.2 0.00 0.00 0.00 54 1010.7
20260503194826 79 132 2.6 5.2 0.00 0.00 0.00 53 1010.7
20260503194331 79 132 1.7 3.5 0.00 0.00 0.00 53 1010.8
20260503193822 78 132 0.9 2.6 0.00 0.00 0.00 53 1010.9
20260503193323 77 132 0.9 4.3 0.00 0.00 0.00 53 1010.9
20260503192826 76 132 0.9 4.3 0.00 0.00 0.00 57 1011.0
20260503192350 76 132 1.7 5.2 0.00 0.00 0.00 59 1011.0
20260503191837 76 132 3.5 7.0 0.00 0.00 0.00 56 1011.1
20260503191324 75 132 4.3 7.0 0.00 0.00 0.00 58 1011.1
20260503190836 75 132 5.2 7.0 0.00 0.00 0.00 56 1011.2
20260503190329 75 132 5.2 7.0 0.00 0.00 0.00 57 1011.2
20260503185828 74 132 5.2 7.0 0.00 0.00 0.00 59 1011.3
20260503185333 74 133 5.2 7.0 0.00 0.00 0.00 60 1011.4
20260503184842 73 133 5.2 7.0 0.00 0.00 0.00 59 1011.4
20260503184324 74 133 5.2 7.0 0.00 0.00 0.00 58 1011.5
20260503183829 74 134 3.5 7.0 0.00 0.00 0.00 60 1011.6
20260503183331 74 133 4.3 7.0 0.00 0.00 0.00 61 1011.6
20260503182831 73 134 5.2 7.8 0.00 0.00 0.00 61 1011.6
20260503182338 73 132 3.5 7.8 0.00 0.00 0.00 64 1011.6
20260503181821 72 132 4.3 7.8 0.00 0.00 0.00 64 1011.7
20260503181321 72 131 5.2 7.8 0.00 0.00 0.00 63 1011.7
20260503180823 71 130 4.3 7.8 0.00 0.00 0.00 65 1011.7
20260503180338 71 130 4.3 8.7 0.00 0.00 0.00 64 1011.8
20260503175824 70 130 5.2 8.7 0.00 0.00 0.00 66 1011.8
20260503175333 69 130 4.3 7.0 0.00 0.00 0.00 66 1011.9
20260503174838 69 130 5.2 7.8 0.00 0.00 0.00 67 1011.9
20260503174321 70 130 5.2 7.8 0.00 0.00 0.00 65 1012.0
20260503173824 70 132 5.2 8.7 0.00 0.00 0.00 64 1011.9
20260503173335 69 132 2.6 8.7 0.00 0.00 0.00 67 1012.0
20260503172835 67 132 3.5 7.0 0.00 0.00 0.00 68 1012.0
20260503172323 67 132 3.5 7.0 0.00 0.00 0.00 68 1012.0
20260503171837 67 132 4.3 8.7 0.00 0.00 0.00 68 1012.1
20260503171322 67 133 4.3 8.7 0.00 0.00 0.00 66 1012.1
20260503170825 67 132 5.2 7.8 0.00 0.00 0.00 68 1012.1
20260503170332 66 131 2.6 7.8 0.00 0.00 0.00 71 1012.1
20260503150832 58 132 5.2 7.0 0.00 0.00 0.00 83 1012.6
20260503150335 58 132 4.3 7.0 0.00 0.00 0.00 83 1012.6
20260503131335 54 139 3.5 7.0 0.00 0.00 0.00 93 1012.3
20260503130820 54 140 5.2 6.1 0.00 0.00 0.00 93 1012.4
20260503130326 54 140 1.7 6.1 0.00 0.00 0.00 93 1012.4
20260503110827 53 235 0.0 5.2 0.00 0.00 0.00 96 1012.7
20260503110330 53 247 0.9 4.3 0.00 0.00 0.00 97 1012.6
20260503090343 53 281 0.0 4.3 0.00 0.00 0.00 93 1013.0
20260503081324 54 292 0.0 0.0 0.00 0.00 0.00 93 1013.2
20260503080833 54 292 0.0 2.6 0.00 0.00 0.00 93 1013.2
20260503080328 54 292 0.0 1.7 0.00 0.00 0.00 94 1013.4
20260503072820 56 292 0.9 2.6 0.00 0.00 0.00 92 1013.4
20260503072326 56 292 0.0 1.7 0.00 0.00 0.00 92 1013.4
20260503071835 56 292 0.0 3.5 0.00 0.00 0.00 92 1013.3
20260503071321 56 292 0.0 4.3 0.00 0.00 0.00 92 1013.3
20260503070857 56 292 2.6 4.3 0.00 0.00 0.00 92 1013.3
20260503070335 56 292 3.5 4.3 0.00 0.00 0.00 92 1013.3
20260503060336 56 292 4.3 5.2 0.00 0.00 0.00 91 1013.7
20260503054822 57 292 1.7 4.3 0.00 0.00 0.00 90 1013.7
20260503054323 57 292 0.9 3.5 0.00 0.00 0.00 90 1013.7
20260503053826 57 292 0.9 3.5 0.00 0.00 0.00 90 1013.7
20260503053349 57 292 1.7 4.3 0.00 0.00 0.00 90 1013.7
20260503052833 57 292 1.7 4.3 0.00 0.00 0.00 90 1013.7
20260503052332 58 292 2.6 4.3 0.00 0.00 0.00 89 1013.7
20260503051821 58 292 1.7 3.5 0.00 0.00 0.00 89 1013.7
20260503051327 58 292 0.9 3.5 0.00 0.00 0.00 89 1013.6
20260503050834 58 292 0.0 3.5 0.00 0.00 0.00 89 1013.7
20260503050336 58 292 0.9 4.3 0.00 0.00 0.00 89 1013.7
20260503045840 58 292 2.6 4.3 0.00 0.00 0.00 88 1013.5
20260503045325 58 292 0.9 3.5 0.00 0.00 0.00 88 1013.5
20260503044828 58 292 0.0 4.3 0.00 0.00 0.00 88 1013.6
20260503044337 58 292 3.5 4.3 0.00 0.00 0.00 88 1013.5
20260503043824 59 292 2.6 4.3 0.00 0.00 0.00 87 1013.4
20260503043329 59 292 2.6 3.5 0.00 0.00 0.00 87 1013.3
20260503042838 59 292 2.6 4.3 0.00 0.00 0.00 87 1013.4
20260503042358 59 292 2.6 5.2 0.00 0.00 0.00 87 1013.3
20260503041859 59 292 3.5 5.2 0.00 0.00 0.00 88 1013.2
20260503041339 59 292 2.6 4.3 0.00 0.00 0.00 87 1013.1
20260503040827 59 292 2.6 4.3 0.00 0.00 0.00 87 1013.1
20260503040322 59 292 3.5 5.2 0.00 0.00 0.00 88 1013.0
20260503035844 59 292 3.5 5.2 0.00 0.00 0.00 88 1012.9
20260503035325 59 293 3.5 4.3 0.00 0.00 0.00 87 1012.8
20260503034827 59 293 3.5 5.2 0.00 0.00 0.00 87 1012.7
20260503034326 59 293 3.5 4.3 0.00 0.00 0.00 86 1012.6
20260503033830 59 293 2.6 4.3 0.00 0.00 0.00 86 1012.5
20260503033332 60 293 1.7 3.5 0.00 0.00 0.00 86 1012.4
20260503032838 60 293 1.7 3.5 0.00 0.00 0.00 85 1012.3
20260503032326 60 293 0.9 2.6 0.00 0.00 0.00 85 1012.2
20260503031828 60 293 0.9 3.5 0.00 0.00 0.00 85 1012.2
20260503031332 60 293 0.9 3.5 0.00 0.00 0.00 84 1012.1
20260503030854 61 293 0.9 5.2 0.00 0.00 0.00 84 1012.1
20260503030330 60 290 1.7 5.2 0.00 0.00 0.00 85 1012.0
20260503025821 61 290 4.3 6.1 0.00 0.00 0.00 84 1012.0
20260503025321 61 290 3.5 6.1 0.00 0.00 0.00 83 1012.0
20260503024824 62 291 4.3 5.2 0.00 0.00 0.00 82 1012.0
20260503024328 62 323 2.6 4.3 0.00 0.00 0.00 81 1012.0
20260503023850 63 323 2.6 4.3 0.00 0.00 0.00 79 1012.0
20260503023328 64 323 1.7 4.3 0.00 0.00 0.00 79 1012.0
20260503022821 64 323 2.6 4.3 0.00 0.00 0.00 77 1012.0
20260503022321 65 323 1.7 4.3 0.00 0.00 0.00 77 1012.0
20260503021833 65 323 1.7 4.3 0.00 0.00 0.00 77 1011.9
20260503021337 65 323 1.7 4.3 0.00 0.00 0.00 76 1011.9
20260503020826 66 323 2.6 6.1 0.00 0.00 0.00 75 1011.9
20260503015820 67 331 0.9 4.3 0.00 0.00 0.00 74 1011.9
20260503015330 68 331 1.7 4.3 0.00 0.00 0.00 74 1011.9
20260503014837 68 340 1.7 5.2 0.00 0.00 0.00 74 1011.9
20260503014322 68 355 0.9 5.2 0.00 0.00 0.00 74 1011.9
20260503013825 68 355 1.7 6.1 0.00 0.00 0.00 73 1012.0
20260503013332 68 349 1.7 6.1 0.00 0.00 0.00 73 1011.9
20260503012837 67 26 1.7 7.0 0.00 0.00 0.00 74 1011.9
20260503012334 67 5 2.6 7.8 0.00 0.00 0.00 73 1012.0
20260503011838 67 17 3.5 8.7 0.00 0.00 0.00 74 1011.9
20260503011323 67 360 1.7 7.0 0.00 0.00 0.00 74 1011.9
20260503010826 67 14 3.5 7.8 0.00 0.00 0.00 74 1012.0
20260503010334 67 5 5.2 8.7 0.00 0.00 0.00 74 1011.9
20260503005837 67 21 4.3 7.8 0.00 0.00 0.00 73 1011.9
20260503005343 68 19 3.5 9.6 0.00 0.00 0.00 72 1011.9
20260503004827 68 12 6.1 10.4 0.00 0.00 0.00 72 1011.9
20260503004317 68 17 4.3 7.8 0.00 0.00 0.00 72 1012.0
20260503003825 68 24 4.3 7.8 0.00 0.00 0.00 71 1011.9
20260503003329 69 21 2.6 10.4 0.00 0.00 0.00 72 1011.9
20260503002834 69 19 1.7 10.4 0.00 0.00 0.00 72 1011.9
20260503002322 68 355 4.3 10.4 0.00 0.00 0.00 71 1012.0
20260503001835 69 360 1.7 6.1 0.00 0.00 0.00 71 1012.0
20260503001321 69 348 1.7 7.0 0.00 0.00 0.00 70 1012.0
20260503000823 69 342 2.6 7.0 0.00 0.00 0.00 70 1012.1
20260503000357 69 308 3.5 7.0 0.00 0.00 0.00 70 1012.1
20260502235834 69 326 3.5 6.1 0.00 0.00 0.00 70 1012.1
20260502235320 69 325 2.6 7.0 0.00 0.00 0.00 71 1012.2
20260502234828 70 321 1.7 7.8 0.00 0.00 0.00 71 1012.2
20260502234334 70 323 2.6 7.8 0.00 0.00 0.00 70 1012.1
20260502233823 70 321 2.6 6.1 0.00 0.00 0.00 71 1012.2
20260502233327 69 328 2.6 6.1 0.00 0.00 0.00 72 1012.2
20260502232825 69 331 3.5 6.1 0.00 0.00 0.00 71 1012.3
20260502232337 68 350 2.6 6.1 0.00 0.00 0.00 74 1012.4
20260502231824 67 355 3.5 6.1 0.00 0.00 0.00 76 1012.4
20260502231356 66 197 3.5 5.2 0.00 0.00 0.00 76 1012.5
20260502230823 66 194 4.3 5.2 0.00 0.00 0.00 71 1012.5
20260502230327 67 186 2.6 4.3 0.00 0.00 0.00 70 1012.6